Theta_e
296 300 303 305 305 306 299 298 300 303 309 314 318 316 316 319 325 336 337 337 336 335 335 335 336 337 337 336 338 340 339 335 336 335 335 334 335 334 334 337 335 333 332 332
296 302 304 305 307 308 306 306 302 308 307 316 319 321 317 319 328 336 337 337 337 337 336 336 338 337 337 338 339 338 335 333 333 332 332 330 329 328 327 325 324 324 324 328
291 298 302 299 305 306 306 306 308 305 310 315 316 322 326 323 332 334 338 338 337 337 337 337 338 339 337 338 339 336 334 334 335 334 331 328 325 321 319 319 318 319 319 318
293 295 290 302 307 309 307 311 313 314 315 316 318 325 328 332 332 333 337 338 339 338 338 338 339 339 337 336 335 335 334 333 332 331 327 323 319 318 316 316 315 314 315 313
293 291 296 302 304 308 305 307 316 316 317 320 324 325 326 333 336 335 335 337 338 340 338 339 338 336 333 332 331 331 330 328 325 323 320 318 316 315 314 312 312 310 311 310
293 291 291 299 313 317 314 303 320 321 319 321 323 313 322 330 336 336 337 336 337 338 339 338 336 335 333 329 327 324 323 321 320 318 317 314 313 312 311 310 310 310 310 311
296 293 299 314 316 318 299 303 321 321 323 324 322 325 325 333 335 336 336 337 338 338 336 336 334 332 327 324 323 322 320 318 315 313 314 313 310 309 309 309 309 308 310 310
302 297 296 317 315 307 310 319 322 323 328 323 321 327 330 333 334 335 334 334 333 329 327 329 329 326 321 319 320 320 317 315 313 311 315 313 309 307 308 308 308 308 303 301
306 306 314 316 314 316 318 316 320 325 324 325 323 328 332 332 332 332 332 327 325 323 324 324 322 322 318 316 316 315 314 312 312 311 311 310 308 307 307 307 308 306 303 300
304 310 314 317 319 321 320 320 322 328 325 328 331 332 331 331 330 328 326 323 322 321 320 318 318 317 316 315 314 312 310 309 309 309 309 309 311 309 307 304 304 302 301 299
306 311 314 319 322 322 323 324 329 330 331 334 333 331 331 330 328 326 324 322 320 317 316 313 312 311 310 309 309 307 306 306 306 306 304 304 305 308 307 306 305 302 300 299
302 313 314 315 318 325 324 324 326 323 328 334 334 331 330 327 326 325 322 320 317 314 312 310 310 309 309 309 309 307 305 305 305 302 303 304 302 301 303 302 302 301 300 301
311 317 317 320 325 327 327 327 327 326 326 332 332 331 328 324 323 321 320 317 314 312 311 309 308 309 309 309 309 306 305 305 305 305 304 303 300 300 298 300 300 298 298 299
318 318 316 321 323 328 328 329 328 326 329 332 329 327 324 321 319 318 317 315 314 313 310 310 309 309 309 310 307 307 306 309 307 306 305 300 301 301 301 300 299 299 300 300
317 319 317 320 321 325 329 329 327 326 329 327 325 323 321 318 317 316 315 314 313 311 309 309 309 308 310 307 307 307 307 308 308 306 301 303 301 301 300 299 298 298 298 299
318 319 319 319 320 325 328 327 330 328 324 323 321 320 319 319 316 314 313 312 311 308 308 309 306 306 308 308 307 308 307 311 309 302 302 301 300 299 298 298 297 297 297 297
313 313 316 315 318 324 327 331 329 323 323 321 320 318 317 315 313 311 310 310 310 309 309 308 306 306 308 308 310 310 305 303 311 301 301 300 300 299 299 297 297 297 298 299
316 315 318 315 319 322 329 329 324 323 321 321 318 316 313 312 311 309 309 311 311 309 308 309 308 307 308 307 310 309 307 303 301 300 301 300 300 299 298 298 298 297 298 298
319 320 320 320 319 326 329 323 323 323 322 319 317 314 312 311 310 309 311 309 308 306 307 308 317 312 304 307 314 308 306 302 300 301 302 303 300 299 298 298 298 298 300 301
320 321 322 321 321 328 323 323 323 321 320 319 316 314 312 311 312 312 309 307 308 309 310 309 311 307 306 309 319 307 304 300 301 300 301 300 299 299 299 299 299 299 303 302
321 321 321 326 326 324 323 323 321 319 319 318 316 314 312 312 312 310 307 306 309 311 311 315 310 308 311 311 306 301 299 300 300 300 301 300 300 300 300 300 300 304 304 303
317 322 326 325 323 321 322 322 321 320 318 317 316 314 313 311 310 308 309 309 310 311 310 308 308 311 305 312 303 302 301 300 300 300 301 301 301 300 300 300 301 303 302 301
320 325 324 323 322 320 321 321 321 321 318 318 315 314 313 313 311 308 307 311 309 308 307 306 310 312 309 301 302 302 303 302 301 301 301 300 302 301 300 301 302 302 301 300
323 323 322 323 323 321 318 318 320 320 319 317 316 314 313 310 308 309 312 310 308 309 307 307 308 309 306 301 302 304 303 302 301 301 302 301 302 301 302 302 301 300 301 299
325 324 323 322 321 320 320 321 320 318 318 316 314 313 312 311 310 309 311 309 308 309 307 309 310 309 301 302 303 304 302 301 302 302 301 301 301 300 301 302 301 300 300 301
324 324 324 324 323 323 323 322 319 318 318 315 314 315 312 310 309 308 308 308 307 308 307 306 305 304 302 303 301 302 301 302 302 302 301 301 301 302 302 302 301 301 301 302
322 320 322 323 324 323 322 321 319 317 317 316 314 312 311 311 310 309 307 308 307 309 309 306 306 306 304 303 301 302 303 302 302 303 302 302 302 303 303 301 302 302 302 302
Wind_Speed
7 8 5 7 7 8 6 7 8 8 13 19 22 15 7 6 6 10 15 15 13 11 9 9 8 7 6 6 6 5 6 6 6 6 5 6 6 5 5 7 6 6 6 6
4 3 5 5 10 8 4 4 3 11 3 8 8 7 9 9 7 12 13 13 12 10 9 8 7 7 6 6 6 6 7 6 6 6 6 6 6 6 7 6 6 6 6 6
6 2 5 5 9 7 5 3 11 9 10 10 8 11 8 10 10 12 12 11 11 10 8 7 7 6 6 7 7 6 6 6 5 4 5 6 6 6 6 5 5 5 5 5
4 5 2 12 5 7 2 7 5 9 14 17 15 7 9 10 10 9 12 12 10 9 7 6 5 8 8 7 9 7 7 5 4 5 6 6 6 5 4 3 4 3 3 3
5 4 6 11 2 3 2 3 2 13 12 12 9 6 3 7 15 12 9 11 11 11 8 10 10 9 8 6 8 8 6 5 5 5 6 5 4 4 3 4 4 3 2 3
3 5 8 7 11 11 3 3 4 20 18 12 6 5 7 10 10 12 13 10 12 12 12 11 7 9 10 7 7 6 6 6 5 4 5 4 2 1 1 1 2 4 6 5
2 3 3 9 18 8 3 10 9 9 11 10 7 7 2 7 9 13 12 15 14 13 12 10 6 7 7 7 7 6 6 6 5 3 4 3 1 1 2 3 4 4 5 3
2 1 2 10 8 8 6 8 13 7 12 12 5 7 13 9 13 17 17 14 13 12 7 6 7 10 9 8 6 6 6 6 4 3 4 3 2 3 2 3 4 3 0 2
5 6 6 4 6 5 2 5 3 8 18 17 19 9 15 17 17 15 17 13 11 12 10 6 6 8 10 6 7 6 5 4 3 2 2 3 3 5 3 2 3 3 3 3
3 3 5 8 4 7 5 1 7 9 13 17 20 20 19 17 16 14 13 13 12 12 11 8 7 7 7 6 6 6 4 1 2 2 4 5 4 3 3 3 3 5 3 3
6 8 7 6 2 1 6 7 5 14 18 13 19 18 19 17 16 14 12 9 9 11 10 8 8 8 7 6 7 6 3 1 1 1 2 3 3 3 3 2 4 2 3 4
8 7 5 8 3 1 6 3 2 10 10 9 15 18 18 14 14 14 12 10 9 10 11 8 8 7 5 5 6 5 3 1 1 1 2 2 2 4 14 7 11 12 9 6
7 9 10 10 1 10 6 4 6 8 11 7 9 14 16 16 13 14 13 12 11 11 10 8 8 7 5 5 5 3 2 1 2 3 3 3 3 4 5 3 6 5 8 7
6 5 6 8 2 6 4 8 9 14 11 7 14 13 16 17 14 14 12 11 11 10 8 8 7 6 5 5 4 3 1 5 3 4 3 2 4 5 4 3 0 2 4 7
13 14 5 5 9 10 5 12 12 12 10 9 11 15 16 16 13 12 11 11 10 9 7 8 7 5 6 5 4 0 3 4 3 2 2 5 4 4 3 3 2 3 3 4
11 13 13 12 13 6 5 8 16 17 13 14 13 11 12 13 13 11 10 10 11 7 7 8 7 7 6 5 2 1 3 7 3 2 4 4 3 4 3 3 3 3 4 5
8 6 8 11 11 14 19 19 17 15 13 13 13 14 14 13 12 10 7 7 8 7 7 8 8 6 5 3 3 3 3 4 4 5 4 3 3 4 4 3 3 4 5 6
9 4 6 5 5 9 9 14 16 17 16 16 15 15 14 14 12 8 7 7 7 6 7 8 8 6 6 5 4 2 1 3 2 4 4 3 4 4 4 4 5 5 6 6
8 9 7 7 4 8 14 14 15 15 14 15 16 14 11 10 9 7 7 9 8 7 7 7 9 7 4 5 4 2 2 2 2 1 3 4 4 4 3 4 5 6 7 5
7 6 9 7 10 15 14 11 16 13 12 13 12 13 11 8 8 9 8 8 9 7 8 7 6 5 5 5 7 1 2 3 3 2 3 3 3 4 4 5 6 6 7 5
10 9 7 9 12 15 18 18 17 15 13 13 15 12 12 8 9 9 7 5 7 8 7 7 5 3 3 4 3 2 3 3 3 1 2 2 3 4 5 6 6 6 6 4
7 7 10 16 15 13 13 15 14 14 13 11 11 12 11 8 9 7 6 7 4 7 5 4 4 6 3 4 2 2 2 2 1 1 3 3 4 5 5 6 6 5 5 4
6 9 13 15 17 15 12 13 14 14 13 13 14 13 12 9 7 7 5 5 5 6 5 5 8 9 6 3 1 0 3 4 4 5 5 4 5 5 5 6 5 5 5 5
7 11 11 12 15 15 13 6 10 9 10 11 12 12 11 6 2 3 3 8 10 8 6 6 7 7 6 2 1 2 4 4 4 5 5 6 5 5 5 5 5 5 5 6
9 11 14 14 14 9 12 12 11 8 9 9 10 8 8 5 6 5 5 5 11 8 5 7 7 5 2 2 2 3 4 4 4 3 4 4 5 5 5 5 5 5 5 6
10 11 11 14 13 11 11 11 10 7 8 7 5 6 5 4 4 5 5 7 7 7 5 4 4 4 3 3 3 4 4 4 4 4 5 5 5 5 5 5 5 5 5 6
3 10 8 7 6 10 10 10 11 9 8 8 6 5 5 5 6 7 7 6 5 5 5 5 5 6 5 5 5 5 5 5 6 5 5 6 5 5 5 5 5 5 5 5
Wind_Direction
226 238 253 257 271 262 172 207 161 205 171 199 216 192 200 193 162 143 142 147 145 157 160 147 129 122 126 129 125 125 112 105 96 86 76 74 64 61 57 61 60 51 58 68
252 302 309 288 288 263 257 237 183 149 224 216 145 148 168 196 176 156 151 151 151 146 143 130 129 142 142 126 119 107 101 103 108 97 83 78 73 52 48 44 47 52 52 72
255 328 7 332 259 260 287 239 137 159 208 142 144 191 183 190 170 160 160 150 149 148 131 148 157 147 127 129 120 102 115 118 111 119 98 76 73 62 45 36 29 42 50 65
211 58 285 244 269 240 240 23 335 100 147 167 167 146 149 168 152 160 158 158 145 140 153 149 115 118 117 117 112 121 101 89 88 83 80 70 65 56 38 33 31 44 52 68
136 178 273 305 338 341 142 332 336 126 130 133 130 62 358 180 165 156 157 161 159 158 135 133 138 138 122 124 121 112 112 93 81 86 87 74 54 33 18 28 11 8 317 13
104 164 218 243 338 349 109 342 218 146 154 140 110 146 201 190 161 147 148 138 125 126 129 133 147 138 131 129 114 120 119 120 102 100 113 104 90 343 330 20 331 342 342 27
178 214 331 334 310 291 205 219 179 178 138 137 121 146 168 265 141 136 127 120 120 122 135 150 146 122 120 115 125 133 123 118 103 98 131 153 224 298 320 331 349 352 327 323
10 20 242 351 353 65 281 347 166 167 134 106 113 215 151 161 121 118 121 117 108 103 92 102 129 126 114 113 128 127 131 123 127 126 157 176 249 300 311 322 317 311 159 305
159 205 239 268 218 234 86 114 277 155 156 149 177 193 143 130 126 128 124 116 111 107 101 75 81 112 113 135 123 121 118 134 183 224 265 272 270 286 315 320 280 242 231 274
25 266 260 290 309 23 27 81 220 193 186 191 150 146 133 124 126 129 126 121 120 110 108 108 101 95 108 112 105 115 134 181 323 296 289 277 276 256 269 275 247 251 329 51
278 278 303 195 218 261 324 17 311 182 199 184 136 138 135 130 131 124 122 124 124 121 118 125 108 101 109 109 103 94 83 30 18 342 351 342 304 264 314 342 212 136 138 122
234 225 207 256 245 286 281 104 4 38 311 137 132 136 133 124 127 130 130 126 121 120 123 121 110 118 123 114 105 112 101 39 295 322 318 338 340 41 27 103 99 113 154 140
222 217 220 259 299 275 189 180 23 27 319 148 133 135 127 123 122 120 124 130 132 129 126 127 129 142 155 143 138 151 164 291 306 319 309 286 19 97 132 4 53 115 152 162
235 168 291 286 275 153 58 6 358 23 287 204 128 124 120 120 118 126 131 132 125 126 133 136 139 163 170 170 166 185 261 280 269 286 288 45 134 120 145 142 197 319 259 242
206 206 210 246 304 126 92 129 251 260 177 126 119 129 128 121 118 121 124 122 122 128 140 127 138 173 176 183 180 297 305 291 278 308 185 152 132 134 134 142 173 226 283 297
223 209 230 234 221 250 158 198 208 171 141 127 129 116 109 112 119 119 119 125 133 157 143 139 167 185 180 187 180 282 274 272 243 200 144 130 147 150 175 199 222 244 264 263
150 206 213 173 197 185 196 173 152 131 135 135 122 120 115 117 114 121 137 140 137 142 151 157 187 187 194 200 241 223 256 326 11 122 151 186 173 184 209 216 229 231 250 259
193 184 280 168 178 124 148 140 137 138 137 133 127 127 131 134 141 150 146 137 120 127 170 179 173 170 179 195 215 270 6 355 96 156 185 201 194 205 214 217 224 243 262 271
211 218 189 245 184 107 143 133 134 133 136 139 138 136 134 128 138 138 152 133 139 164 213 178 181 163 198 231 235 260 343 325 140 181 207 207 206 242 260 250 242 249 257 270
225 240 274 245 159 142 126 134 131 133 140 132 128 125 124 129 138 156 157 158 181 197 181 183 176 194 230 265 254 13 321 142 167 221 233 215 239 278 278 266 268 262 272 270
215 234 206 145 139 139 140 143 138 138 148 148 135 142 143 150 163 160 143 153 224 207 184 160 159 213 203 183 114 90 148 174 193 58 318 288 277 257 279 277 278 276 278 261
180 152 138 134 131 127 141 137 134 137 141 134 132 132 137 149 171 165 168 170 195 137 140 144 161 182 180 111 86 47 150 211 184 249 269 265 255 264 277 285 284 289 281 264
139 136 135 136 141 140 134 139 144 145 144 145 146 146 155 173 166 152 164 216 145 152 130 140 167 170 116 93 91 257 190 219 241 253 264 273 268 266 276 282 285 283 271 261
120 135 127 121 126 123 125 133 122 136 145 146 145 151 148 144 172 177 156 136 147 135 144 166 161 166 124 144 185 265 209 241 264 275 280 275 276 279 287 284 285 286 271 272
132 131 129 130 133 133 130 129 118 128 143 144 149 143 153 164 154 183 156 159 144 135 161 192 188 163 184 255 249 225 237 256 261 272 286 284 289 292 290 291 278 272 277 273
159 150 154 153 145 141 140 140 139 151 156 146 149 160 152 141 161 144 153 153 154 153 164 175 187 210 210 243 231 237 251 252 268 271 266 272 275 284 286 284 279 277 279 281
114 117 110 108 130 138 144 144 146 160 155 158 157 152 145 161 167 152 154 151 151 161 164 181 199 213 223 223 234 246 247 258 253 249 257 264 266 270 270 267 274 279 287 294